[[{"header":{"parameterUnit":"m.s-1","parameterCategory":1,"la1":30.2991,"la2":30.254,"lo1":-89.0895,"lo2":-89.0444,"dy":0.0017,"dx":0.0017,"nx":28,"ny":28,"refTime":"2024-04-23T09:00:00:Z","depth":0,"parameterNumber":2,"parameterNumberName":"U-component_of_WINDS"},"data":[0,0,0,0,0,0,0,0,0,0,0,0,0,0,0,0,0,0,0,0,0,0,0,0,0,0,0,0,0,0,0,0,0,0,0,0,0,0,0,0,0,0,0,0,0,0,0,0,0,0,0,0,0,0,0,0,0,0,2.2052,2.2052,0,2.2078,2.2078,2.2078,2.2046,2.2045,2.2044,2.2042,2.2068,2.207,2.2071,0,0,0,0,0,0,0,0,0,0,0,0,0,2.197,2.1972,2.2052,2.2052,2.2052,2.2078,2.2078,2.2078,2.2046,2.2045,2.2043,2.2042,2.2067,2.2069,2.2072,0,0,0,0,0,0,0,0,0,0,0,0,0,2.2002,2.1973,2.2051,2.2039,2.2038,2.2078,2.2078,2.2079,2.2046,2.2045,2.2043,2.2041,2.2067,2.2069,2.2072,2.2124,0,0,2.208,2.2081,0,0,0,0,0,0,0,0,2.2,2.2005,2.2041,2.204,2.2039,2.2057,2.2059,2.2094,2.2047,2.2043,2.2042,2.204,2.2066,2.2068,2.2077,2.2125,2.2126,2.208,2.2082,2.2083,2.2084,0,0,0,0,0,0,0,2.1998,2.2004,2.2062,2.2041,2.204,2.2031,2.2034,2.2065,2.2064,2.2044,2.2041,2.2045,2.2065,2.2074,2.2077,2.2127,2.208,2.2083,2.2084,2.2085,2.2215,2.2217,0,0,0,0,0,0,2.1998,2.2002,2.2061,2.2063,2.2015,2.2034,2.2037,2.2053,2.2064,2.2064,2.2046,2.2043,2.2071,2.2074,2.2078,2.2137,2.2083,2.2086,2.2087,2.2213,2.2216,2.2218,0,0,0,0,0,0,2.1996,2.2003,2.206,2.2032,2.2038,2.2038,2.2056,2.2054,2.2064,2.2066,2.2065,2.2057,2.207,2.2074,2.2112,2.2137,2.2087,2.2089,2.2211,2.2214,2.2217,2.2257,0,0,0,0,0,0,2.1994,2.2003,2.2024,2.2032,2.204,2.2095,2.2057,2.2056,2.2069,2.2065,2.2075,2.2075,2.2068,2.2108,2.2115,2.214,2.2091,2.2209,2.2213,2.2216,2.2253,2.226,2.2267,0,0,0,0,0,2.1991,2.2034,2.2025,2.2032,2.2066,2.2096,2.21,2.2092,2.2071,2.2091,2.2092,2.2075,2.2134,2.2112,2.2119,2.2146,2.2207,2.2211,2.2216,2.225,2.2259,2.2267,0,0,0,0,0,0,2.2028,2.2035,2.2025,2.2072,2.2084,2.2091,2.2115,2.2102,2.212,2.2115,2.2104,2.2107,2.2146,2.215,2.2126,2.2195,2.2167,2.2173,2.2191,2.2199,2.2206,2.2203,2.2093,0,0,0,0,0,2.2042,2.2067,2.2072,2.2113,2.2119,2.2117,2.2129,2.2122,2.2133,2.2138,2.2141,2.2152,2.2173,2.2187,2.2207,2.2254,2.2254,2.2276,2.2283,2.2288,2.2292,2.2315,2.2323,2.2231,2.2231,2.2231,0,0,2.2071,2.2078,2.2094,2.2121,2.2129,2.2153,2.2121,2.2149,2.2166,2.2142,2.2177,2.218,2.2191,2.2233,2.2252,2.2238,2.2318,2.2294,2.2298,2.2299,2.232,2.2328,2.2336,2.2234,2.2234,2.2233,0,0,2.2135,2.2144,2.2177,2.2186,2.2198,2.2196,2.2204,2.2212,2.2213,2.2248,2.223,2.225,2.2287,2.2295,2.2304,2.2368,2.2352,2.2375,2.241,2.2432,2.2439,2.2445,2.2465,2.2473,2.238,2.238,2.238,0,2.2168,2.2205,2.2196,2.2224,2.2235,2.2215,2.2247,2.2256,2.2274,2.2282,2.2266,2.231,2.2316,2.2358,2.2374,2.2383,2.239,2.2373,2.2439,2.2445,2.2451,2.2469,2.2477,2.2383,2.2382,2.2382,2.2382,0,2.2244,2.2269,2.2295,2.2312,2.2326,2.2357,2.2351,2.2366,2.2358,2.2356,2.2391,2.2398,2.2417,2.2427,2.2419,2.2467,2.2457,2.2441,2.2412,2.2462,2.2479,2.2487,2.2386,2.2385,2.2385,2.2384,0,0,2.2331,2.2342,2.2351,2.2357,2.2368,2.2387,2.2416,2.2435,2.2446,2.246,2.2481,2.2512,2.2496,2.2506,2.2499,2.2519,2.2565,2.2499,2.2499,2.2508,2.2614,2.2624,2.2633,2.2556,2.2557,2.2558,2.2612,0,2.2392,2.2441,2.2433,2.2481,2.2502,2.2482,2.2507,2.2516,2.2515,2.2533,2.2532,2.2553,2.2532,2.2537,2.2556,2.2555,2.2586,2.2552,2.2573,2.2574,2.2568,2.2643,2.2654,2.2704,2.2619,2.262,2.2621,0,2.247,2.2484,2.2533,2.2538,2.2547,2.2569,2.2584,2.2602,2.261,2.2609,2.2619,2.2608,2.2634,2.2607,2.2642,2.2619,2.2628,2.2629,2.2631,2.263,2.2599,2.264,2.2721,2.2727,2.2632,2.2632,2.2631,0,2.2523,2.2556,2.2588,2.2595,2.2603,2.2618,2.2622,2.2629,2.264,2.2653,2.2659,2.2676,2.2684,2.2696,2.2689,2.267,2.2724,2.2697,2.2721,2.2721,2.2731,2.273,2.2811,2.2742,2.2742,2.2742,2.2742,0,2.259,2.262,2.2612,2.2632,2.2664,2.2654,2.2686,2.2688,2.2694,2.2713,2.2698,2.2715,2.2706,2.2723,2.2718,2.2746,2.2751,2.2748,2.2746,2.2748,2.2747,2.2751,2.2746,2.2744,2.2744,2.2743,2.2743,0,2.2655,2.2651,2.2685,2.2689,2.2691,2.2714,2.2717,2.2734,2.2733,2.2756,2.2761,2.2758,2.2777,2.2771,2.2792,2.2788,2.2823,2.2818,2.2819,2.2817,2.284,2.2837,2.2923,2.2933,2.2861,2.2862,2.2863,0,2.2696,2.2718,2.2725,2.2736,2.2741,2.2759,2.277,2.2761,2.2772,2.2783,2.2799,2.2816,2.2829,2.2859,2.2858,2.2873,2.2866,2.2895,2.2868,2.2868,2.2862,2.286,2.286,2.29,2.2901,2.2901,2.2902,0,2.2769,2.2765,2.2781,2.2795,2.2808,2.2819,2.2828,2.2838,2.283,2.2844,2.2862,2.2872,2.2892,2.2908,2.2921,2.2924,2.2911,2.2911,2.2916,2.2917,2.2916,2.2913,2.283,2.2908,2.2907,2.2907,2.2907,2.2906,2.2821,2.2838,2.2844,2.2861,2.2868,2.2876,2.2892,2.2892,2.2907,2.2922,2.2917,2.2937,2.2943,2.2959,2.2964,2.2979,2.2968,2.2977,2.2979,2.298,2.2982,2.2916,2.2982,2.2982,2.2982,2.2982,2.2981,0,2.2889,2.2892,2.2908,2.2921,2.2934,2.2921,2.293,2.2942,2.296,2.2967,2.2979,2.2999,2.3015,2.3015,2.3029,2.304,2.3034,2.3044,2.3041,2.3042,2.2993,2.2985,2.3048,2.3048,2.3048,2.3048,2.3048,2.3048,2.2926,2.2954,2.2951,2.2981,2.2983,2.3002,2.3008,2.3016,2.3021,2.3044,2.3056,2.3056,2.306,2.3074,2.3086,2.3086,2.309,2.3102,2.3099,2.3052,2.3046,2.3039,2.3031,2.3104,2.3104,2.3146,2.3146,2.3147]},{"header":{"parameterUnit":"m.s-1","parameterCategory":1,"la1":30.2991,"la2":30.254,"lo1":-89.0895,"lo2":-89.0444,"dy":0.0017,"dx":0.0017,"nx":28,"ny":28,"refTime":"2024-04-23T09:00:00:Z","depth":0,"parameterNumber":3,"parameterNumberName":"V-component_of_WINDS"},"data":[0,0,0,0,0,0,0,0,0,0,0,0,0,0,0,0,0,0,0,0,0,0,0,0,0,0,0,0,0,0,0,0,0,0,0,0,0,0,0,0,0,0,0,0,0,0,0,0,0,0,0,0,0,0,0,0,0,0,2.7863,2.7864,0,2.7976,2.7978,2.7979,2.7966,2.7964,2.7962,2.796,2.8073,2.8077,2.8082,0,0,0,0,0,0,0,0,0,0,0,0,0,2.7629,2.7633,2.7863,2.7864,2.7866,2.7976,2.7978,2.7979,2.7966,2.7964,2.7962,2.7959,2.8071,2.8077,2.8082,0,0,0,0,0,0,0,0,0,0,0,0,0,2.7735,2.7635,2.7862,2.7872,2.7874,2.7976,2.7978,2.798,2.7966,2.7964,2.7961,2.7958,2.8069,2.8076,2.8083,2.8181,0,0,2.8105,2.8108,0,0,0,0,0,0,0,0,2.7729,2.7744,2.7869,2.7872,2.7874,2.7954,2.7936,2.8047,2.7967,2.7931,2.796,2.7957,2.8035,2.8045,2.8072,2.8186,2.8191,2.8105,2.8109,2.8112,2.8114,0,0,0,0,0,0,0,2.7722,2.7739,2.7907,2.7871,2.7874,2.7869,2.7881,2.7957,2.7997,2.7934,2.7934,2.7947,2.8036,2.8065,2.8075,2.8192,2.8105,2.8111,2.8116,2.8118,2.8388,2.8391,0,0,0,0,0,0,2.7712,2.7733,2.7904,2.7911,2.7794,2.7876,2.7889,2.7931,2.7996,2.8004,2.795,2.7946,2.8055,2.8066,2.8078,2.8195,2.8112,2.8119,2.8123,2.8385,2.8389,2.8392,0,0,0,0,0,0,2.7708,2.7728,2.7899,2.7822,2.7843,2.7883,2.793,2.7935,2.7964,2.8008,2.8014,2.7973,2.8053,2.8069,2.8155,2.8198,2.8122,2.8129,2.8382,2.8387,2.8391,2.8429,0,0,0,0,0,0,2.7701,2.7726,2.7765,2.7823,2.7847,2.7976,2.7933,2.7939,2.7977,2.7974,2.8031,2.8038,2.8052,2.8144,2.8162,2.8207,2.8134,2.8378,2.8384,2.8389,2.8424,2.8434,2.8443,0,0,0,0,0,2.7693,2.7772,2.7767,2.7788,2.7897,2.7978,2.7992,2.8008,2.798,2.8019,2.8046,2.8036,2.8191,2.8153,2.8173,2.822,2.8375,2.8382,2.8389,2.842,2.8432,2.8443,0,0,0,0,0,0,2.7718,2.7779,2.7775,2.7876,2.7922,2.7976,2.8025,2.8021,2.8075,2.807,2.8086,2.8099,2.8185,2.8212,2.8169,2.8316,2.8279,2.829,2.8296,2.8308,2.8318,2.8309,2.814,0,0,0,0,0,2.7735,2.7797,2.7847,2.7931,2.7954,2.7986,2.8022,2.803,2.8078,2.8097,2.8131,2.8176,2.8235,2.8273,2.833,2.8428,2.8439,2.847,2.8479,2.8487,2.8496,2.8546,2.856,2.8414,2.8414,2.8414,0,0,2.7771,2.7813,2.7851,2.7937,2.7974,2.8035,2.8002,2.807,2.8115,2.8107,2.819,2.8216,2.8268,2.836,2.8402,2.8384,2.8539,2.8496,2.8501,2.8506,2.8555,2.8569,2.8581,2.8419,2.8418,2.8417,0,0,2.7868,2.7907,2.798,2.8017,2.8073,2.8093,2.811,2.8165,2.8182,2.8266,2.826,2.8313,2.8415,2.8451,2.8483,2.8591,2.8583,2.8609,2.8658,2.8707,2.8719,2.8729,2.8765,2.8778,2.8618,2.8618,2.8618,0,2.7906,2.8001,2.8017,2.8085,2.8122,2.8117,2.8189,2.8224,2.8295,2.832,2.8299,2.8425,2.8459,2.8558,2.8584,2.8611,2.8629,2.8602,2.8716,2.8726,2.8736,2.8771,2.8784,2.8621,2.862,2.862,2.862,0,2.8043,2.8108,2.816,2.8229,2.8271,2.8341,2.8366,2.8406,2.841,2.8431,2.8515,2.8556,2.862,2.8644,2.8648,2.8743,2.873,2.8713,2.8675,2.8752,2.8785,2.8799,2.8624,2.8623,2.8623,2.8622,0,0,2.816,2.8236,2.8254,2.8284,2.8345,2.8395,2.8463,2.8526,2.8559,2.8608,2.8663,2.8748,2.8732,2.8768,2.8776,2.8819,2.8899,2.8797,2.8798,2.8812,2.9002,2.9013,2.9028,2.8894,2.8897,2.8899,2.8997,0,2.8261,2.8383,2.8398,2.8506,2.8564,2.856,2.8619,2.8661,2.8682,2.8733,2.8756,2.8815,2.8791,2.8812,2.8855,2.888,2.8937,2.8873,2.8943,2.8946,2.8929,2.9046,2.9059,2.9149,2.901,2.9012,2.9014,0,2.8396,2.8449,2.8562,2.8612,2.8637,2.869,2.8747,2.8797,2.8844,2.8856,2.8895,2.8897,2.8964,2.8925,2.9016,2.8973,2.9002,2.9019,2.9022,2.9028,2.8983,2.9053,2.9179,2.9192,2.9034,2.9033,2.9031,0,2.8467,2.8566,2.8646,2.8672,2.8733,2.877,2.8796,2.884,2.8876,2.8926,2.8948,2.9005,2.9036,2.9078,2.9094,2.9064,2.9184,2.9146,2.9193,2.9193,2.9218,2.9216,2.9349,2.924,2.924,2.9239,2.9239,0,2.8578,2.8647,2.8678,2.8727,2.8803,2.8819,2.8893,2.8918,2.8957,2.9008,2.9008,2.9056,2.9075,2.9126,2.9138,2.921,2.9225,2.9235,2.9237,2.9234,2.9232,2.9252,2.9246,2.9243,2.9242,2.9242,2.9241,0,2.867,2.8694,2.878,2.8831,2.8844,2.8898,2.894,2.8986,2.9006,2.9071,2.9087,2.9118,2.9177,2.9198,2.927,2.9278,2.9361,2.9359,2.9346,2.9346,2.9391,2.9386,2.954,2.956,2.944,2.9441,2.9442,0,2.8738,2.8791,2.8847,2.8882,2.891,2.8966,2.9003,2.9019,2.9057,2.9112,2.9151,2.921,2.9258,2.9352,2.938,2.9434,2.9432,2.9482,2.944,2.9434,2.943,2.9426,2.943,2.949,2.9491,2.9492,2.9493,0,2.8856,2.8865,2.8918,2.8975,2.9019,2.9064,2.9108,2.9136,2.9159,2.92,2.9261,2.9298,2.9371,2.9429,2.9484,2.9509,2.9504,2.9506,2.9519,2.9516,2.9505,2.9509,2.9365,2.9502,2.9501,2.95,2.95,2.95,2.8937,2.8983,2.9028,2.9087,2.9121,2.9161,2.9206,2.9232,2.9283,2.9344,2.9351,2.9415,2.9457,2.9531,2.9558,2.9608,2.9594,2.9614,2.9618,2.9623,2.9625,2.9499,2.9618,2.9618,2.9618,2.9617,2.9617,0,2.9053,2.9082,2.9135,2.9196,2.9241,2.9234,2.9281,2.9319,2.9376,2.9417,2.9464,2.9532,2.9587,2.9619,2.9673,2.9707,2.9705,2.972,2.9717,2.9722,2.9636,2.9618,2.972,2.972,2.972,2.972,2.972,2.972,2.9119,2.9194,2.9208,2.93,2.9328,2.9392,2.9419,2.9455,2.9487,2.9564,2.961,2.963,2.9666,2.9723,2.9773,2.978,2.9799,2.9815,2.9821,2.9739,2.9729,2.9719,2.9702,2.982,2.982,2.9903,2.9904,2.9905]}]]